Wind_Speed
27 22 18 17 17 19 21 21 21 21 23 23 23 22 19 17 17 17 16 15 15 14 13 13 13 12 12 11 11 11 11 12 12 12 12 12 12 13 13 14 15 16 17 18
29 27 21 19 19 18 20 21 22 22 25 24 24 21 20 19 18 17 18 17 16 15 15 14 14 14 13 13 13 12 13 13 13 13 13 13 13 13 14 14 15 16 17 18
29 28 24 24 22 20 20 21 22 24 26 23 24 25 22 22 21 20 20 20 19 17 16 16 16 15 15 15 15 14 14 14 14 14 14 14 14 15 15 16 17 17 17 18
31 27 27 24 23 23 23 23 23 26 27 26 26 26 25 24 23 23 22 22 21 19 18 18 18 17 17 17 17 17 17 17 16 16 15 16 15 16 17 18 18 18 19 19
32 29 29 26 25 25 26 27 28 30 30 29 28 28 28 27 25 23 23 23 22 22 21 20 20 20 20 20 20 19 19 19 18 17 17 17 17 18 19 19 19 20 20 21
34 31 28 28 29 28 27 29 31 32 32 32 31 31 30 28 26 25 24 23 23 24 23 23 23 22 21 21 21 21 21 20 20 19 19 19 19 19 20 21 21 22 23 23
35 33 31 31 31 31 32 34 34 33 33 32 32 32 31 29 28 27 26 25 25 25 25 25 25 24 23 22 23 23 22 22 22 21 21 21 22 22 21 22 22 23 23 24
37 35 35 34 32 33 34 33 34 32 32 32 33 32 31 30 29 28 27 27 26 26 25 26 26 26 25 25 25 25 25 25 24 24 24 23 23 23 23 23 23 24 24 25
38 40 40 38 38 37 36 35 35 34 33 33 33 31 31 31 29 28 28 27 27 27 26 26 26 26 26 26 26 26 26 27 27 26 25 25 25 25 25 25 26 26 26 26
39 39 41 42 40 38 37 36 35 35 34 34 34 32 32 31 31 30 29 28 28 28 28 27 27 27 26 27 27 27 27 27 27 28 27 27 26 26 27 27 27 27 28 28
39 41 41 41 40 38 37 37 37 36 36 35 34 34 33 32 31 30 30 29 29 28 27 27 27 27 27 27 28 28 28 28 28 28 28 27 27 27 28 28 28 29 29 29
41 40 39 39 38 37 35 35 35 35 34 34 34 34 33 32 31 31 30 30 29 28 27 26 27 28 28 28 28 28 28 27 27 26 27 27 27 28 28 28 28 28 27 28
38 37 36 37 37 36 35 34 34 35 35 33 33 32 31 31 31 31 30 29 28 28 27 27 28 28 28 28 28 27 27 27 26 25 26 26 26 27 27 27 27 27 26 27
34 35 35 35 35 35 34 33 33 34 34 33 32 31 30 30 30 30 30 29 28 27 27 27 26 26 26 27 26 26 26 26 26 25 25 25 25 25 25 25 26 26 27 27
31 30 31 32 32 31 31 32 31 30 30 31 30 30 29 28 28 28 28 27 27 27 27 26 26 26 26 25 25 26 26 26 25 24 24 24 24 24 25 25 27 27 28 29
28 29 30 31 31 30 30 30 28 28 29 29 29 29 28 27 26 26 26 26 26 26 26 26 26 25 24 24 24 24 24 24 24 24 23 23 23 23 24 25 27 28 28 28
26 26 27 29 29 29 28 28 27 27 27 27 27 26 25 25 24 23 23 23 24 24 24 23 23 23 22 22 23 24 23 23 22 22 22 22 22 23 24 25 26 26 26 26
24 24 25 27 27 27 26 26 26 26 26 25 24 24 23 23 22 22 22 22 22 22 22 21 20 21 21 21 21 20 20 21 22 22 21 22 22 23 23 23 23 24 24 25
23 24 24 24 24 24 24 24 23 23 23 22 22 22 22 22 22 22 21 21 21 20 20 19 19 19 19 18 18 18 19 19 20 21 21 21 21 21 22 23 23 24 25 26
23 23 22 22 21 21 21 21 21 21 21 21 21 20 19 19 19 19 19 19 19 18 18 18 18 18 17 17 17 18 18 18 18 18 18 19 20 21 22 22 23 24 25 26
22 21 20 20 20 19 19 19 19 19 19 18 18 18 17 17 17 16 16 16 16 16 16 16 16 15 15 15 16 16 16 17 17 17 18 19 20 22 23 23 25 26 26 27
20 20 18 18 17 17 16 16 16 16 16 16 16 16 15 15 14 14 13 13 11 11 11 11 12 13 14 15 15 15 16 17 17 19 20 21 22 23 24 25 26 26 27 27
16 16 16 16 14 14 14 14 14 14 14 13 12 12 12 12 11 11 11 11 11 11 11 11 12 12 13 14 15 16 17 18 19 21 22 22 23 25 26 26 27 27 27 27
14 14 14 14 13 12 12 12 11 12 12 11 11 10 10 10 10 11 10 10 10 11 11 11 12 13 15 16 17 18 19 20 21 22 23 23 24 25 26 26 27 27 26 26
13 13 13 12 12 12 12 12 11 11 10 10 9 9 9 9 9 10 10 10 10 10 11 13 14 16 17 18 19 19 20 21 22 22 23 24 25 25 25 25 25 25 25 25
12 12 12 12 12 12 12 11 11 9 8 8 9 8 8 7 7 8 8 9 10 12 13 14 15 17 18 18 19 20 21 21 22 22 23 23 23 23 24 24 25 25 25 24
11 11 11 11 11 11 10 10 9 8 7 7 7 6 6 6 7 8 9 11 12 13 14 15 16 17 18 18 19 19 20 21 21 22 22 22 22 23 23 24 24 24 24 24
Wind_Direction
210 212 226 237 236 231 230 225 230 236 244 250 258 264 265 263 270 275 278 279 280 281 281 284 286 288 288 289 292 293 295 295 292 288 282 276 273 274 272 270 271 269 269 268
213 211 218 226 229 230 232 229 232 241 245 245 250 253 262 266 272 276 276 275 277 278 278 281 284 286 286 287 292 294 296 297 295 290 284 279 275 278 275 274 276 275 274 273
215 216 221 225 219 222 230 233 233 240 246 244 248 258 264 267 272 274 274 273 274 275 275 277 279 280 282 284 288 290 293 295 294 291 287 283 281 281 280 278 278 281 279 278
217 218 224 224 223 224 229 233 232 237 246 252 256 259 265 269 272 271 269 270 271 273 274 275 275 277 280 280 283 285 287 291 293 293 289 288 285 284 283 282 281 284 282 281
218 221 225 224 225 226 231 230 232 239 246 249 254 258 262 267 270 271 269 267 268 270 272 273 274 275 277 277 278 281 283 286 290 290 289 288 287 285 283 283 282 282 282 283
222 222 226 225 227 226 230 231 234 239 244 247 252 257 261 263 266 268 269 269 270 269 270 271 272 273 275 276 275 278 280 282 285 288 287 287 287 287 287 285 284 283 283 284
225 226 230 229 229 227 227 233 238 242 245 249 250 256 259 262 265 267 269 270 271 271 272 271 271 270 272 275 275 277 278 280 283 285 285 286 287 287 287 288 286 286 287 287
227 226 231 233 235 233 232 235 240 244 247 249 254 255 258 261 263 265 267 269 270 271 272 272 272 271 272 274 275 276 277 278 281 282 283 285 286 286 287 288 288 288 288 288
231 229 230 233 236 238 239 239 242 244 248 250 253 256 259 262 263 264 266 268 269 270 271 272 272 270 271 271 273 275 276 277 279 282 284 284 284 286 287 287 287 287 286 287
228 230 232 233 236 241 243 242 244 248 252 253 255 259 260 261 262 263 264 267 270 271 271 270 270 270 270 271 273 275 276 278 279 280 282 282 281 283 285 286 287 286 286 287
229 233 235 237 239 242 244 245 247 251 252 255 258 260 261 262 262 262 264 266 268 270 270 270 268 268 270 270 271 274 275 277 278 278 278 279 282 284 285 286 286 286 287 286
229 233 235 238 241 241 243 245 248 253 254 256 258 259 261 262 262 262 263 265 267 268 267 266 267 268 269 271 272 273 276 277 276 278 279 280 282 284 286 286 286 286 286 287
233 236 237 238 240 242 244 247 250 253 256 257 257 258 260 261 260 261 263 265 266 266 266 266 267 268 268 270 272 274 276 276 276 277 279 281 282 283 284 284 286 286 286 288
236 236 236 237 239 242 246 248 251 253 253 255 256 257 258 259 260 260 261 264 265 264 264 264 265 267 269 270 272 273 274 274 276 278 281 282 283 284 284 285 286 287 288 289
236 237 237 239 241 244 246 248 250 250 251 252 254 256 257 259 260 259 260 263 264 263 264 263 264 267 269 270 270 272 273 273 275 278 280 281 283 285 285 285 286 288 290 290
237 238 238 241 242 245 246 248 249 249 250 251 253 256 258 259 259 259 260 262 261 262 263 263 264 267 268 268 270 271 272 273 274 277 279 282 283 285 287 287 287 288 289 289
237 238 239 239 239 240 243 245 245 247 250 252 254 254 256 257 257 257 258 259 261 262 263 263 265 267 268 270 272 271 271 274 276 278 280 282 286 288 289 290 291 291 291 292
236 237 238 238 240 242 243 244 245 248 250 250 249 251 254 255 255 255 257 258 260 261 262 263 263 267 270 269 269 269 269 274 277 280 282 284 287 290 292 292 293 296 297 297
233 235 236 239 241 242 244 244 244 245 247 245 246 249 251 252 253 255 256 257 259 260 262 263 264 267 268 268 269 269 272 277 281 282 282 285 288 290 292 294 296 297 297 298
230 232 234 237 239 240 240 240 240 241 242 243 243 245 248 250 252 252 252 254 257 259 260 258 259 260 262 266 269 273 277 280 282 285 288 290 292 293 295 297 298 298 299 300
227 228 232 233 234 236 237 237 239 241 241 243 244 244 245 247 248 248 248 252 255 255 256 256 257 258 262 267 272 276 279 282 284 288 291 293 293 294 295 296 298 299 299 300
220 223 226 227 227 229 232 234 237 239 239 240 241 241 241 241 241 242 244 246 247 249 253 259 263 266 270 273 276 278 282 286 289 290 291 292 293 295 296 298 298 299 299 299
210 213 215 218 222 227 229 231 231 230 228 230 233 235 235 236 238 240 245 248 252 255 260 267 270 271 273 277 282 285 287 289 291 291 291 292 294 296 297 298 298 299 299 299
205 208 212 214 217 221 222 220 220 219 220 223 225 225 226 229 235 241 247 252 256 258 261 267 271 275 280 284 286 287 288 289 290 291 291 293 294 296 298 298 298 298 298 298
203 203 204 206 208 209 207 208 210 211 214 214 216 221 226 231 239 246 250 258 263 267 272 275 278 281 285 288 289 290 291 291 291 292 294 295 296 297 297 298 298 298 298 298
187 193 199 202 203 202 202 202 199 197 200 204 209 215 223 231 239 247 259 270 275 278 281 283 285 287 288 290 290 291 292 293 295 296 297 298 298 300 301 301 301 300 299 298
187 188 190 195 197 195 191 188 188 191 196 201 207 215 228 243 254 264 274 279 281 284 288 290 291 292 293 293 292 294 296 296 297 298 299 299 300 300 301 302 302 300 299 299
Height
5827 5832 5835 5837 5839 5842 5844 5846 5848 5849 5848 5847 5847 5847 5846 5847 5849 5849 5850 5849 5849 5849 5849 5849 5849 5849 5848 5848 5848 5848 5848 5847 5847 5846 5846 5846 5847 5847 5847 5847 5847 5847 5847 5848
5821 5826 5829 5832 5835 5838 5840 5842 5843 5843 5841 5841 5841 5841 5842 5842 5845 5845 5847 5847 5847 5847 5847 5847 5846 5846 5846 5846 5846 5846 5845 5845 5844 5843 5843 5843 5843 5843 5843 5843 5843 5843 5843 5843
5815 5820 5823 5826 5830 5833 5836 5837 5839 5839 5837 5836 5837 5838 5838 5839 5841 5842 5843 5843 5843 5844 5844 5844 5844 5844 5844 5843 5843 5843 5842 5842 5841 5840 5840 5840 5840 5840 5839 5839 5839 5839 5839 5838
5810 5814 5817 5823 5826 5828 5830 5831 5833 5831 5831 5832 5833 5833 5834 5835 5837 5838 5839 5839 5839 5840 5840 5840 5840 5840 5840 5840 5840 5839 5839 5838 5838 5837 5836 5836 5835 5835 5835 5835 5835 5835 5834 5833
5803 5807 5811 5816 5819 5822 5824 5825 5826 5826 5826 5828 5828 5828 5829 5830 5832 5833 5833 5833 5834 5835 5836 5836 5836 5836 5836 5836 5836 5836 5835 5835 5834 5833 5833 5832 5832 5831 5831 5830 5830 5830 5829 5828
5796 5800 5804 5809 5811 5814 5818 5817 5818 5819 5820 5822 5824 5824 5825 5826 5826 5828 5829 5828 5829 5830 5830 5831 5831 5831 5831 5831 5831 5831 5831 5830 5830 5829 5828 5828 5827 5827 5826 5825 5825 5824 5823 5823
5788 5793 5796 5799 5802 5806 5810 5810 5811 5812 5813 5815 5818 5818 5819 5820 5821 5822 5823 5823 5824 5824 5825 5825 5826 5826 5826 5826 5826 5826 5825 5825 5825 5824 5824 5823 5822 5821 5821 5820 5819 5818 5817 5817
5781 5786 5790 5791 5794 5796 5798 5801 5803 5805 5807 5809 5810 5810 5812 5813 5815 5816 5816 5817 5817 5818 5819 5819 5819 5820 5820 5820 5820 5820 5820 5819 5819 5819 5818 5817 5817 5816 5815 5815 5814 5812 5811 5810
5773 5777 5779 5782 5785 5787 5790 5793 5796 5798 5800 5801 5802 5803 5805 5807 5808 5809 5810 5810 5811 5812 5812 5813 5813 5813 5813 5814 5814 5814 5814 5813 5813 5812 5812 5811 5811 5810 5809 5808 5807 5806 5805 5803
5762 5766 5770 5773 5777 5781 5784 5786 5788 5790 5791 5793 5794 5796 5798 5800 5801 5802 5803 5804 5804 5805 5806 5806 5806 5807 5807 5807 5807 5807 5807 5807 5806 5806 5805 5804 5804 5803 5802 5801 5800 5799 5798 5796
5754 5758 5762 5766 5770 5773 5775 5778 5781 5782 5784 5786 5788 5790 5791 5792 5793 5794 5795 5796 5797 5798 5798 5799 5799 5799 5800 5800 5800 5800 5800 5800 5799 5798 5798 5797 5796 5796 5795 5794 5793 5792 5790 5789
5745 5750 5754 5757 5761 5764 5766 5770 5772 5774 5775 5778 5781 5782 5784 5785 5786 5787 5788 5788 5789 5790 5791 5792 5792 5792 5793 5793 5793 5793 5793 5792 5792 5791 5791 5790 5789 5788 5787 5786 5785 5784 5783 5782
5738 5741 5744 5749 5753 5756 5758 5762 5765 5767 5768 5771 5773 5775 5776 5777 5778 5779 5780 5781 5782 5783 5783 5784 5785 5785 5785 5785 5785 5785 5785 5785 5785 5784 5784 5783 5782 5781 5780 5779 5778 5777 5776 5774
5730 5734 5737 5741 5745 5749 5752 5754 5756 5759 5761 5763 5765 5767 5768 5769 5770 5771 5772 5774 5774 5775 5776 5776 5777 5777 5778 5778 5778 5778 5778 5778 5778 5777 5777 5776 5775 5774 5773 5772 5771 5770 5768 5767
5724 5727 5730 5734 5738 5741 5744 5747 5749 5751 5754 5756 5757 5759 5760 5762 5763 5764 5765 5766 5767 5768 5768 5769 5770 5770 5771 5771 5771 5771 5772 5771 5771 5771 5770 5769 5768 5768 5767 5766 5764 5763 5761 5759
5718 5721 5725 5728 5732 5735 5738 5740 5743 5745 5747 5749 5750 5752 5753 5754 5756 5757 5758 5759 5760 5761 5761 5762 5763 5763 5764 5764 5764 5764 5764 5764 5764 5764 5763 5762 5762 5761 5760 5759 5757 5755 5753 5751
5713 5716 5719 5722 5725 5728 5731 5734 5736 5738 5740 5742 5743 5745 5746 5748 5749 5750 5751 5752 5753 5754 5755 5756 5756 5757 5757 5757 5758 5757 5758 5758 5757 5757 5757 5756 5755 5754 5753 5751 5750 5748 5746 5744
5708 5711 5714 5717 5719 5722 5725 5728 5730 5732 5733 5735 5737 5739 5740 5742 5743 5744 5745 5746 5747 5748 5749 5749 5750 5751 5751 5751 5751 5751 5752 5752 5751 5751 5750 5749 5748 5747 5746 5745 5743 5741 5739 5737
5703 5706 5709 5711 5714 5717 5719 5721 5724 5725 5727 5729 5731 5733 5735 5736 5737 5738 5740 5740 5741 5742 5743 5744 5744 5745 5745 5745 5746 5746 5746 5746 5745 5745 5744 5743 5742 5741 5739 5738 5736 5734 5732 5729
5698 5701 5704 5707 5709 5712 5714 5716 5719 5720 5722 5724 5726 5728 5729 5731 5732 5733 5734 5735 5736 5737 5738 5739 5739 5739 5740 5740 5741 5741 5741 5741 5740 5739 5738 5737 5735 5734 5733 5731 5729 5727 5724 5722
5695 5697 5700 5702 5705 5707 5709 5712 5714 5716 5718 5719 5721 5723 5724 5726 5727 5728 5730 5731 5732 5732 5733 5734 5735 5735 5736 5736 5736 5736 5736 5735 5734 5733 5732 5731 5729 5728 5726 5724 5722 5719 5717 5714
5691 5694 5696 5699 5701 5704 5706 5708 5710 5712 5714 5715 5717 5719 5720 5722 5723 5725 5726 5727 5728 5729 5730 5730 5731 5731 5732 5732 5732 5731 5731 5730 5728 5727 5726 5725 5723 5721 5719 5717 5714 5712 5709 5706
5688 5691 5693 5696 5698 5701 5703 5705 5707 5709 5711 5713 5714 5716 5717 5719 5720 5722 5723 5724 5725 5726 5726 5727 5727 5727 5728 5727 5727 5726 5725 5724 5723 5721 5720 5718 5716 5714 5712 5709 5706 5704 5701 5699
5686 5689 5691 5694 5696 5699 5701 5703 5704 5706 5708 5710 5712 5714 5715 5717 5719 5720 5720 5721 5722 5723 5723 5723 5723 5723 5723 5722 5722 5721 5719 5718 5717 5715 5713 5711 5709 5706 5704 5701 5699 5696 5694 5691
5685 5688 5690 5692 5695 5697 5699 5701 5703 5705 5707 5708 5710 5712 5714 5715 5716 5717 5718 5719 5719 5719 5719 5719 5719 5718 5718 5717 5716 5715 5713 5712 5710 5708 5706 5704 5702 5699 5696 5694 5691 5689 5686 5684
5685 5688 5690 5692 5694 5696 5698 5700 5702 5704 5706 5708 5709 5711 5712 5713 5714 5715 5715 5716 5716 5716 5715 5715 5714 5713 5713 5711 5710 5708 5707 5705 5703 5701 5699 5697 5694 5692 5689 5687 5684 5682 5680 5677
5685 5687 5690 5692 5694 5696 5698 5700 5702 5704 5706 5707 5708 5710 5711 5711 5712 5712 5712 5712 5712 5712 5711 5710 5709 5708 5707 5705 5704 5702 5700 5698 5697 5694 5692 5690 5688 5685 5683 5680 5677 5675 5673 5670